Location: Buckeye Ditch
(40.9104°N, 122.9517°W)
Time: 07:02:36
(UTC+00:00)

Cosmos 1805 - Visible Passes

Search period start: 16 July 2024 00:00
Search period end: 26 July 2024 00:00
Orbit: 486 x 491 km, 82.5° (Epoch: 15 July)

Date Brightness Start Highest point End Pass type
(mag) Time Alt. Az. Time Alt. Az. Time Alt. Az.
16 Jul 6.3 11:11:17 10° E 11:11:59 10° E 11:12:39 10° ENE visible
17 Jul 3.1 12:19:27 10° SSW 12:23:06 73° W 12:26:47 10° N visible
18 Jul 3.4 11:55:56 10° S 11:59:34 68° E 12:03:14 10° NNE visible
19 Jul 4.3 11:32:35 10° SSE 11:36:02 41° E 11:39:31 10° NNE visible
20 Jul 5.1 11:09:28 10° SSE 11:12:33 26° E 11:15:38 10° NNE visible
21 Jul 5.7 10:46:39 10° SE 10:49:04 17° E 10:51:28 10° NE visible
21 Jul 4.2 12:20:49 10° SW 12:23:58 27° WNW 12:27:08 10° NNW visible
22 Jul 6.0 10:24:40 10° E 10:25:35 11° E 10:26:30 10° ENE visible
22 Jul 3.6 11:57:25 14° SSW 12:00:16 42° W 12:03:47 10° N visible
23 Jul 3.0 11:34:20 22° SSW 11:36:36 70° W 11:40:16 10° N visible
24 Jul 3.2 11:11:14 29° S 11:12:56 70° E 11:16:36 10° NNE visible
25 Jul 4.1 10:48:03 30° SE 10:49:17 42° E 10:52:46 10° NNE visible
25 Jul 5.3 12:23:24 10° W 12:24:40 11° WNW 12:25:56 10° NW visible
